STARLINK-5333, 56507

Orbit data source: Space-Track

STARLINK-5333, 56507 is a payload satellite owned by SpaceX/Seattle (US) in LEO that was launched on Sun, 14 May 2023 UTC via an FALCON 9 launch vehicle from the Air Force Eastern Test Range (AFETR). Payload-class satellites include a variety of spacecraft equipped with specific instruments for various scientific and technological missions. These include communications satellites like Starlink; space stations such as the ISS; scientific satellites like the Hubble; Earth observation satellites from companies like Planet Labs, Umbra, and HawkEye 360; GPS; miniature CubeSats for education and research; and military/defense satellites.

Loading next visibility...
Identifier
56507, 2023-065E
Orbit
LEO
Country
Flag of USUS
Related business
Manufacturer
SpaceX/Seattle
Mission
Operational Commercial Communications
Bus & Motor
STARLINK, Unknown motor
Mass
305 kg wet, ~290 kg dry
Launch date (UTC)
2023-05-14 (3 years ago)
Launch vehicle
FALCON 9
Launch site
Air Force Eastern Test Range (AFETR)
Object type
Payload
Rocket body
Debris
Shape & HBR
Box + 1 Pan, 10.1 m
Radar Cross Section
11.087 m², Large (>1 m²)

Expand to show TLE details & history
Last TLE update: 2 days ago

TLE from 2 days ago
0 STARLINK-5333
1 56507U 23065E   26171.46183470 -.00001050  00000-0 -28641-4 0  9992
2 56507  43.0048 319.3249 0001378 272.5246  87.5448 15.27586041172692
Epoch: 2026-06-20T11:05Z
TLE epoch observation values (Epoch: 2026-06-20T11:05:02.518Z)
Latitude
Longitude
-115.61171°
Altitude
482.767 km
Speed
7.626 km/s
True Right ascension
21h 17m 17s
True Declination
0° 00' 00"
Sunlit
Object was in full shadow at epoch
Visualization orbit readout
Latitude
Unknown
Longitude
Unknown
Altitude
Unknown
Speed
Unknown
Apparent Right ascension
Unknown
Apparent Declination
Unknown
Sunlit
N/A
Visualization observer readout
Local Sidereal Time
21:33:13
Azimuth
Unknown
Elevation
Unknown
Doppler factor
Unknown
Orbital elements
Apogee altitude
485.921 km
Perigee altitude
484.03 km
Semi-major axis
6,863.112 km
Eccentricity
0.00014
Inclination
43.0048°
RAAN
319.3249°
Arg. of periapsis
272.5246°
True anomaly
87.56058°
Mean anomaly
87.5448°
Eccentric anomaly
87.55269°
Mean motion
3.81735 °/min
Orbital period
94.31 mins
BSTAR
-0.000028641
Loading maneuver chart data...
Computing Atmospheric mass density...
Loading historical data...
Loading historical data...
Loading historical data...
Loading historical data...
Loading historical data...
Loading historical data...
Loading historical data...

Documentation

Showing up to 5 results
|